GW2569 Weather Reports


Display with metric or nautical units.
time (UTC)temp
F
wind
direction
speed
MPH
gust
MPH
rain 1hr
in
rain 24hr
in
rain mn
in
humidity
%
barometer
mb
20260505201038 98 101 4.0 8.0 0.00 0.00 0.00 72 1009.0
20260505200539 98 88 1.0 8.0 0.00 0.00 0.00 73 1009.1
20260505200049 98 107 4.0 9.0 0.00 0.00 0.00 73 1009.2
20260505195538 98 73 4.0 9.0 0.00 0.00 0.00 73 1009.3
20260505195038 98 40 1.0 12.0 0.00 0.00 0.00 73 1009.3
20260505194548 98 74 3.0 12.0 0.00 0.00 0.00 73 1009.4
20260505194038 98 91 5.0 10.0 0.00 0.00 0.00 72 1009.5
20260505193541 98 38 2.0 8.0 0.00 0.00 0.00 73 1009.5
20260505193047 97 297 1.0 10.0 0.00 0.00 0.00 74 1009.5
20260505192539 98 57 4.0 12.0 0.00 0.00 0.00 73 1009.6
20260505192040 97 88 4.0 12.0 0.00 0.00 0.00 74 1009.5
20260505191606 97 199 2.0 7.0 0.00 0.00 0.00 73 1009.7
20260505191040 96 174 4.0 7.0 0.00 0.00 0.00 75 1009.7
20260505190540 96 116 2.0 8.0 0.00 0.00 0.00 74 1009.7
20260505190052 97 0 3.0 8.0 0.00 0.00 0.00 73 1009.8
20260505185538 97 90 1.0 8.0 0.00 0.00 0.00 73 1009.9
20260505185038 96 18 3.0 8.0 0.00 0.00 0.00 73 1010.0
20260505184549 97 146 4.0 8.0 0.00 0.00 0.00 72 1010.1
20260505184036 97 120 2.0 6.0 0.00 0.00 0.00 72 1010.2
20260505183539 97 0 1.0 6.0 0.00 0.00 0.00 71 1010.3
20260505183045 96 86 1.0 6.0 0.00 0.00 0.00 72 1010.4
20260505182538 96 169 2.0 7.0 0.00 0.00 0.00 72 1010.4
20260505182043 96 199 3.0 7.0 0.00 0.00 0.00 73 1010.6
20260505181548 96 165 3.0 9.0 0.00 0.00 0.00 73 1010.7
20260505181040 95 161 4.0 9.0 0.00 0.00 0.00 74 1010.8
20260505180539 95 145 3.0 7.0 0.00 0.00 0.00 73 1010.9
20260505175541 94 230 2.0 7.0 0.00 0.00 0.00 75 1010.9
20260505175039 95 174 2.0 7.0 0.00 0.00 0.00 74 1010.9
20260505174554 94 286 0.0 3.0 0.00 0.00 0.00 73 1011.0
20260505174041 93 0 0.0 8.0 0.00 0.00 0.00 73 1010.9
20260505173542 93 0 2.0 8.0 0.00 0.00 0.00 73 1011.1
20260505173049 93 140 5.0 8.0 0.00 0.00 0.00 73 1011.2
20260505172540 93 159 2.0 7.0 0.00 0.00 0.00 74 1011.2
20260505172040 93 130 3.0 6.0 0.00 0.00 0.00 75 1011.2
20260505171551 94 0 0.0 5.0 0.00 0.00 0.00 75 1011.2
20260505171041 92 201 1.0 9.0 0.00 0.00 0.00 75 1011.3
20260505170541 93 173 5.0 9.0 0.00 0.00 0.00 75 1011.3
20260505170049 93 107 2.0 7.0 0.00 0.00 0.00 76 1011.5
20260505165540 92 254 3.0 7.0 0.00 0.00 0.00 78 1011.6
20260505165041 91 180 2.0 9.0 0.00 0.00 0.00 79 1011.7
20260505164553 91 144 3.0 9.0 0.00 0.00 0.00 78 1011.9
20260505164041 91 184 4.0 10.0 0.00 0.00 0.00 78 1011.8
20260505163540 92 162 2.0 10.0 0.00 0.00 0.00 78 1011.9
20260505163050 92 336 1.0 9.0 0.00 0.00 0.00 79 1011.9
20260505162540 91 185 3.0 9.0 0.00 0.00 0.00 79 1012.0
20260505162041 91 178 4.0 9.0 0.00 0.00 0.00 78 1012.0
20260505161556 91 107 4.0 9.0 0.00 0.00 0.00 78 1012.0
20260505161038 91 69 2.0 8.0 0.00 0.00 0.00 80 1012.0
20260505160541 90 128 3.0 8.0 0.00 0.00 0.00 81 1012.2
20260505153050 88 144 2.0 6.0 0.00 0.00 0.00 83 1012.2
20260505152541 88 0 1.0 6.0 0.00 0.00 0.00 84 1012.1
20260505152045 87 156 1.0 6.0 0.00 0.00 0.00 84 1012.1
20260505151553 86 0 2.0 6.0 0.00 0.00 0.00 86 1012.2
20260505151043 86 145 3.0 8.0 0.00 0.00 0.00 86 1012.2
20260505150541 85 200 3.0 8.0 0.00 0.00 0.00 86 1012.2
20260505140541 82 119 2.0 8.0 0.00 0.00 0.00 92 1012.3
20260505125040 80 144 2.0 6.0 0.00 0.00 0.00 96 1011.9
20260505124552 79 92 1.0 4.0 0.00 0.00 0.00 97 1011.8
20260505124041 79 0 0.0 4.0 0.00 0.00 0.00 97 1011.8
20260505123540 79 0 0.0 3.0 0.00 0.00 0.00 97 1011.7
20260505123047 79 0 0.0 3.0 0.00 0.00 0.00 97 1011.8
20260505122540 79 0 0.0 3.0 0.00 0.00 0.00 97 1011.9
20260505122041 79 0 0.0 3.0 0.00 0.00 0.00 97 1011.9
20260505121549 79 0 0.0 2.0 0.00 0.00 0.00 97 1011.8
20260505121040 79 0 0.0 2.0 0.00 0.00 0.00 97 1011.8
20260505120541 79 0 0.0 2.0 0.00 0.00 0.00 97 1011.7
20260505120052 79 0 0.0 3.0 0.00 0.00 0.00 97 1011.6
20260505115539 79 0 0.0 3.0 0.00 0.00 0.00 97 1011.7
20260505115040 79 200 0.0 3.0 0.00 0.00 0.00 97 1011.6
20260505114556 79 192 0.0 4.0 0.00 0.00 0.00 97 1011.6
20260505114041 79 0 1.0 4.0 0.00 0.00 0.00 97 1011.5
20260505113540 79 187 1.0 4.0 0.00 0.00 0.00 97 1011.4
20260505113052 79 0 0.0 4.0 0.00 0.00 0.00 97 1011.5
20260505112543 79 0 1.0 4.0 0.00 0.00 0.00 97 1011.3
20260505112041 79 154 1.0 6.0 0.00 0.00 0.00 97 1011.4
20260505111549 79 186 1.0 6.0 0.00 0.00 0.00 97 1011.4
20260505111040 79 184 2.0 5.0 0.00 0.00 0.00 97 1011.3
20260505110540 79 181 1.0 5.0 0.00 0.00 0.00 97 1011.3
20260505102040 79 0 1.0 3.0 0.00 0.01 0.00 97 1011.3
20260505101602 79 191 1.0 3.0 0.00 0.01 0.00 97 1011.1
20260505101038 79 161 0.0 2.0 0.00 0.01 0.00 97 1011.1
20260505100541 79 0 0.0 2.0 0.00 0.01 0.00 97 1011.2
20260505095541 79 0 0.0 2.0 0.00 0.01 0.00 97 1011.1
20260505095044 79 0 0.0 3.0 0.00 0.01 0.00 97 1011.1
20260505094545 79 0 0.0 3.0 0.00 0.01 0.00 97 1011.0
20260505094041 79 0 0.0 2.0 0.00 0.01 0.00 97 1010.9
20260505093541 79 201 0.0 3.0 0.00 0.01 0.00 97 1011.0
20260505093100 79 0 0.0 5.0 0.00 0.01 0.00 97 1010.9
20260505092541 79 161 1.0 5.0 0.00 0.01 0.00 97 1010.8
20260505092041 79 201 1.0 4.0 0.00 0.01 0.00 97 1010.7
20260505091549 79 0 0.0 2.0 0.00 0.01 0.00 97 1010.7
20260505091043 79 193 0.0 3.0 0.00 0.01 0.00 97 1010.7
20260505090539 79 0 0.0 3.0 0.00 0.01 0.00 97 1010.7
20260505090049 79 0 0.0 3.0 0.00 0.01 0.00 97 1010.7
20260505085540 79 0 0.0 3.0 0.00 0.01 0.00 97 1010.7
20260505085041 79 142 0.0 4.0 0.00 0.01 0.00 97 1010.7
20260505084550 79 0 0.0 6.0 0.00 0.01 0.00 97 1010.6
20260505084041 79 119 2.0 6.0 0.00 0.01 0.00 97 1010.7
20260505083543 79 116 1.0 7.0 0.00 0.01 0.00 96 1010.6
20260505083045 79 128 2.0 8.0 0.00 0.01 0.00 96 1010.6
20260505082541 79 0 3.0 8.0 0.00 0.01 0.00 96 1010.7
20260505082041 79 99 4.0 8.0 0.00 0.01 0.00 96 1010.8
20260505081605 79 90 3.0 8.0 0.00 0.01 0.00 96 1010.8
20260505081039 79 114 3.0 8.0 0.00 0.01 0.00 96 1011.0
20260505080542 79 128 2.0 7.0 0.00 0.01 0.00 96 1010.9
20260505080100 79 0 2.0 7.0 0.00 0.01 0.00 96 1011.1
20260505075540 79 128 2.0 8.0 0.00 0.01 0.00 96 1011.2
20260505075040 79 153 3.0 8.0 0.00 0.01 0.00 96 1011.3
20260505074548 80 159 2.0 8.0 0.00 0.01 0.00 96 1011.3
20260505074040 80 138 3.0 8.0 0.00 0.01 0.00 96 1011.3
20260505073540 80 0 4.0 8.0 0.00 0.01 0.00 95 1011.4
20260505073048 80 199 2.0 7.0 0.00 0.01 0.00 95 1011.5
20260505072540 80 132 3.0 7.0 0.00 0.01 0.00 95 1011.5
20260505072040 80 136 2.0 8.0 0.00 0.01 0.00 95 1011.7
20260505071554 80 161 3.0 8.0 0.00 0.01 0.00 95 1011.8
20260505071041 80 159 3.0 7.0 0.00 0.01 0.00 95 1012.0
20260505070540 80 127 1.0 6.0 0.00 0.01 0.00 95 1012.1
20260505070052 80 167 1.0 8.0 0.00 0.01 0.00 95 1012.1
20260505065541 80 180 2.0 8.0 0.00 0.04 0.00 95 1012.4
20260505065040 80 168 2.0 7.0 0.00 0.04 0.00 95 1012.4
20260505064549 80 113 2.0 7.0 0.00 0.04 0.00 95 1012.5
20260505064040 80 157 3.0 7.0 0.00 0.04 0.00 95 1012.5
20260505063544 80 89 2.0 8.0 0.00 0.04 0.00 95 1012.5
20260505063100 80 157 1.0 8.0 0.00 0.04 0.00 95 1012.5
20260505062541 80 150 2.0 8.0 0.00 0.04 0.00 95 1012.5
20260505062041 80 108 1.0 6.0 0.00 0.04 0.00 95 1012.8
20260505061550 80 168 2.0 7.0 0.00 0.04 0.00 95 1012.9
20260505061041 80 167 2.0 7.0 0.00 0.04 0.00 95 1013.1
20260505060540 80 0 1.0 6.0 0.00 0.04 0.00 95 1013.1
20260505060055 80 0 2.0 6.0 0.00 0.04 0.00 95 1013.1
20260505055540 80 0 2.0 6.0 0.00 0.04 0.01 95 1013.2
20260505055040 80 105 2.0 8.0 0.00 0.04 0.01 95 1013.3
20260505054554 80 64 3.0 8.0 0.00 0.04 0.01 95 1013.4
20260505054040 80 117 2.0 4.0 0.00 0.04 0.01 95 1013.5
20260505053540 80 128 1.0 8.0 0.00 0.04 0.01 95 1013.6
20260505053052 80 120 2.0 8.0 0.00 0.04 0.01 95 1013.6
20260505052540 80 123 4.0 8.0 0.00 0.04 0.01 95 1013.5
20260505052041 80 108 3.0 7.0 0.00 0.04 0.01 94 1013.5
20260505051549 80 109 3.0 7.0 0.00 0.04 0.01 94 1013.5
20260505051041 80 134 2.0 7.0 0.00 0.04 0.01 94 1013.6
20260505050541 80 142 3.0 7.0 0.00 0.04 0.01 94 1013.5
20260505041553 80 87 4.0 9.0 0.00 0.04 0.01 93 1013.5
20260505041041 81 79 2.0 9.0 0.00 0.04 0.01 93 1013.5
20260505040541 81 50 4.0 9.0 0.00 0.04 0.01 93 1013.5
20260505040053 81 88 4.0 8.0 0.00 0.04 0.01 93 1013.5
20260505035540 81 76 3.0 9.0 0.00 0.04 0.01 93 1013.4
20260505035042 81 69 3.0 9.0 0.00 0.04 0.01 93 1013.3
20260505034552 81 51 4.0 9.0 0.00 0.04 0.01 92 1013.2
20260505034040 81 9 3.0 7.0 0.00 0.04 0.01 92 1013.1
20260505033539 81 22 2.0 6.0 0.00 0.04 0.01 92 1013.0
20260505033049 81 51 2.0 6.0 0.00 0.04 0.01 92 1013.0
20260505032540 81 49 3.0 6.0 0.00 0.04 0.01 92 1012.8
20260505032039 81 81 2.0 6.0 0.00 0.04 0.01 92 1012.7
20260505031551 81 74 3.0 6.0 0.00 0.04 0.01 92 1012.5
20260505031041 81 84 2.0 6.0 0.00 0.04 0.01 92 1012.5
20260505030545 81 36 3.0 6.0 0.00 0.04 0.01 92 1012.4
20260505030052 81 61 2.0 6.0 0.00 0.04 0.01 92 1012.3
20260505025541 81 0 1.0 6.0 0.00 0.04 0.01 92 1012.3
20260505025042 81 65 2.0 6.0 0.00 0.04 0.01 91 1012.3
20260505024552 81 44 1.0 5.0 0.00 0.04 0.01 91 1012.2
20260505024040 81 71 1.0 5.0 0.00 0.04 0.01 91 1012.3
20260505023540 81 46 1.0 5.0 0.00 0.04 0.01 91 1012.3
20260505023052 81 5 1.0 6.0 0.00 0.04 0.01 91 1012.3
20260505022540 81 43 1.0 6.0 0.00 0.04 0.01 91 1012.3
20260505022043 81 22 2.0 6.0 0.00 0.04 0.01 91 1012.2
20260505021553 81 28 1.0 7.0 0.00 0.04 0.01 91 1012.2
20260505021040 82 0 2.0 7.0 0.00 0.04 0.01 91 1012.1
20260505020540 82 0 1.0 7.0 0.00 0.04 0.01 90 1012.1
20260505020051 82 57 1.0 7.0 0.00 0.04 0.01 90 1012.0
20260505015540 82 32 2.0 6.0 0.00 0.91 0.01 90 1011.9
20260505015040 82 0 1.0 6.0 0.00 0.91 0.01 90 1011.8
20260505014551 82 313 2.0 6.0 0.00 0.91 0.01 90 1011.7
20260505014039 82 5 1.0 6.0 0.00 0.91 0.01 90 1011.8
20260505013538 82 336 1.0 8.0 0.00 0.91 0.01 90 1011.7
20260505013051 82 0 2.0 8.0 0.00 0.91 0.01 89 1011.7
20260505012540 82 45 1.0 8.0 0.00 0.91 0.01 89 1011.6
20260505012041 83 240 2.0 8.0 0.00 0.91 0.01 89 1011.6
20260505011549 83 0 1.0 8.0 0.00 0.91 0.01 89 1011.6
20260505011040 83 84 2.0 8.0 0.00 0.91 0.01 89 1011.5
20260505010540 83 333 1.0 8.0 0.00 0.91 0.01 89 1011.6
20260505010105 83 342 1.0 5.0 0.00 0.91 0.01 88 1011.6
20260505005543 83 318 0.0 8.0 0.00 0.91 0.01 88 1011.7
20260505005041 83 338 2.0 9.0 0.00 0.91 0.01 88 1011.6
20260505004547 83 275 1.0 10.0 0.00 0.91 0.01 88 1011.7
20260505004042 83 327 2.0 10.0 0.00 0.91 0.01 88 1011.6
20260505003539 84 332 1.0 13.0 0.00 0.91 0.01 87 1011.7
20260505003048 84 13 3.0 13.0 0.00 0.91 0.01 87 1011.6
20260505002540 84 342 4.0 13.0 0.00 0.91 0.01 87 1011.6
20260505002038 84 333 4.0 13.0 0.00 0.91 0.01 86 1011.6
20260505001546 84 294 4.0 13.0 0.00 0.91 0.01 86 1011.5
20260505001039 84 313 5.0 14.0 0.00 0.91 0.01 86 1011.5
20260505000540 84 333 7.0 14.0 0.00 0.91 0.01 85 1011.5
20260505000049 85 0 2.0 12.0 0.00 0.91 0.01 85 1011.6
20260504235541 85 313 6.0 12.0 0.00 0.91 0.01 85 1011.5
20260504235043 85 342 2.0 10.0 0.00 0.91 0.01 85 1011.4
20260504234549 85 304 4.0 12.0 0.00 0.91 0.01 85 1011.5
20260504234038 86 339 5.0 15.0 0.00 0.91 0.01 84 1011.4
20260504233540 86 13 3.0 15.0 0.00 0.91 0.01 84 1011.5
20260504233047 86 12 6.0 14.0 0.00 0.91 0.01 84 1011.5
20260504232541 86 304 6.0 12.0 0.00 0.91 0.01 84 1011.5
20260504232040 86 352 5.0 11.0 0.00 0.91 0.01 84 1011.5
20260504231548 86 352 5.0 11.0 0.00 0.91 0.01 84 1011.5
20260504231038 86 309 4.0 12.0 0.00 0.91 0.01 84 1011.3
20260504230542 87 298 4.0 12.0 0.00 0.91 0.01 84 1011.4
20260504230052 87 81 2.0 14.0 0.00 0.91 0.01 84 1011.5
20260504225540 87 5 6.0 15.0 0.00 0.91 0.01 84 1011.4
20260504225039 87 339 7.0 15.0 0.00 0.91 0.01 83 1011.5
20260504224552 88 310 6.0 14.0 0.00 0.91 0.01 83 1011.6
20260504224038 88 331 7.0 14.0 0.00 0.91 0.01 82 1011.6
20260504223544 89 337 5.0 13.0 0.00 0.91 0.01 82 1011.6
20260504223058 89 259 3.0 12.0 0.00 0.91 0.01 82 1011.4
20260504222543 89 319 3.0 11.0 0.00 0.91 0.01 81 1011.5
20260504222040 89 101 2.0 11.0 0.00 0.91 0.01 81 1011.5
20260504221559 90 321 1.0 10.0 0.00 0.91 0.01 81 1011.4
20260504221040 90 0 3.0 11.0 0.00 0.91 0.01 81 1011.5
20260504220540 90 42 3.0 11.0 0.00 0.91 0.01 80 1011.5
20260504220052 91 345 4.0 11.0 0.00 0.91 0.01 78 1011.5
20260504215539 91 352 5.0 10.0 0.00 0.91 0.01 78 1011.6
20260504215040 91 303 3.0 12.0 0.00 0.91 0.01 78 1011.6
20260504214600 90 284 4.0 12.0 0.00 0.91 0.01 79 1011.7
20260504214041 90 335 6.0 12.0 0.00 0.91 0.01 79 1011.8
20260504213540 90 313 5.0 12.0 0.00 0.91 0.01 79 1011.7
20260504213104 90 333 5.0 10.0 0.00 0.91 0.01 79 1011.8
20260504212540 90 5 4.0 10.0 0.00 0.91 0.01 79 1011.7
20260504212042 91 348 2.0 9.0 0.00 0.91 0.01 79 1011.7
20260504211550 91 5 3.0 8.0 0.00 0.91 0.01 78 1011.7
20260504211040 91 14 3.0 8.0 0.00 0.91 0.01 77 1011.7
20260504210540 91 5 2.0 7.0 0.00 0.91 0.01 75 1011.9
20260504210052 92 339 3.0 6.0 0.00 0.91 0.01 74 1011.9
20260504205544 91 69 0.0 5.0 0.00 0.91 0.01 75 1011.9
20260504205040 91 317 1.0 6.0 0.00 0.91 0.01 75 1012.0
20260504204559 91 107 0.0 6.0 0.00 0.91 0.01 75 1012.0
20260504204040 91 84 1.0 6.0 0.00 0.91 0.01 75 1012.2
20260504203540 92 112 2.0 6.0 0.00 0.91 0.01 73 1012.3
20260504203052 92 29 0.0 5.0 0.00 0.91 0.01 75 1012.4
20260504202540 92 58 2.0 6.0 0.00 0.91 0.01 73 1012.4
20260504202040 91 330 2.0 6.0 0.00 0.91 0.01 73 1012.5
20260504201553 90 0 1.0 6.0 0.00 0.91 0.01 75 1012.5